Location: Newark
(36.3000°N, 3.6667°E)
Time: 13:26:21
(UTC+00:00)

Envisat - Visible Passes

Search period start: 23 July 2019 00:00
Search period end: 02 August 2019 00:00
Orbit: 764 x 766 km, 98.1° (Epoch: 23 July)

Date Brightness Start Highest point End Pass type
(mag) Time Alt. Az. Time Alt. Az. Time Alt. Az.
25 Jul 6.2 19:41:52 10° W 19:42:46 10° W 19:43:41 10° W visible
28 Jul 5.9 19:28:48 10° WSW 19:31:24 14° W 19:34:01 10° WNW visible
31 Jul 5.7 19:16:38 10° SW 19:20:04 18° W 19:23:31 10° NW visible
